Вернуться в каталог

STARLINK-5909

АктивенСвязьVLEO
NORAD 55938·PAYLOAD·🇺🇸 United States

Запущен Mar 17, 2023 с Vandenberg Space Force Base

Loading…

Ближайшие Пролёты (ближайшие 24 часа)

TLE

СвежийSource: CelesTrak SupGP

Эпоха: Sep 15, 2026, 01:48 UTC

1 55938C 23037AA  26258.07548611  .00022717  00000+0  19041-2 0  2583
2 55938  70.0019 166.9673 0002779 273.6247 238.9235 14.98314762    11

Отслеживайте STARLINK-5909 в реальном времени с AllMySat

Download on the App Store